Regional Weather Roundup
Issued by NWS

Home | Current Version | Previous Version | Graphics & Text | Print | Product List | Glossary On
Versions: 1 2 3 4 5 6 7 8 9 10 11 12 13 14 15 16 17 18 19 20 21 22 23 24 25 26 27 28 29 30 31 32 33 34 35 36 37 38 39 40 41 42 43 44 45 46 47 48 49 50
000
ASUS43 KMKX 061811
RWRWI

WISCONSIN REGIONAL WEATHER ROUNDUP
NATIONAL WEATHER SERVICE MILWAUKEE/SULLIVAN WI
100 PM CDT WED MAY 06 2015

NOTE: "FAIR" INDICATES FEW OR NO CLOUDS BELOW 12,000 FEET WITH NO
SIGNIFICANT WEATHER AND/OR OBSTRUCTIONS TO VISIBILITY.

WIZ001-002-006>008-014>016-023>028-061900-
NORTHWEST WISCONSIN

CITY           SKY/WX    TMP DP  RH WIND       PRES   REMARKS
SUPERIOR ARPT  CLOUDY    46  38  72 NE10G16   30.09S
6HR MIN TEMP:  40; 6HR MAX TEMP:  46;

ASHLAND        CLOUDY    57  54  89 E6        30.10F
6HR MIN TEMP:  52; 6HR MAX TEMP:  57; 6HR PCP:  0.28;

HAYWARD        FAIR      64  53  67 S9        30.08F
6HR MIN TEMP:  52; 6HR MAX TEMP:  64;

SIREN          FAIR      64  53  68 SE7G16    30.04F
6HR MIN TEMP:  53; 6HR MAX TEMP:  64;

CUMBERLAND     CLOUDY    59  54  82 SE12G17   30.07F
RICE LAKE      CLOUDY    60  55  82 E7        30.08F
6HR MIN TEMP:  52; 6HR MAX TEMP:  60;

CHETEK         CLOUDY    63  57  79 E9        30.07F
6HR MIN TEMP:  51; 6HR MAX TEMP:  63;

LADYSMITH      PTSUNNY   65  55  70 SE8       30.12F
6HR MIN TEMP:  50; 6HR MAX TEMP:  65; 6HR PCP:  0.29;

EAU CLAIRE     FAIR      64  58  80 E9        30.06F
6HR MIN TEMP:  54; 6HR MAX TEMP:  64; 6HR PCP:  0.03;

MENOMONIE      PTSUNNY   64  56  78 E13       30.06F
6HR MIN TEMP:  54; 6HR MAX TEMP:  64;

NEW RICHMOND   FAIR      64  58  81 SE10G17   30.03F
6HR MIN TEMP:  53; 6HR MAX TEMP:  64;

OSCEOLA        CLOUDY    63  60  89 SE13G20   30.05F
6HR MIN TEMP:  54; 6HR MAX TEMP:  63; 6HR PCP:  0.02;

$$

WIZ003>005-009-010-017-018-061900-
NORTH CENTRAL WISCONSIN

CITY           SKY/WX    TMP DP  RH WIND       PRES   REMARKS
MANITOWISH WTR PTSUNNY   57  55  92 SE6       30.14F
6HR MIN TEMP:  46; 6HR MAX TEMP:  57; 6HR PCP:  0.10;

ARBOR VITAE    MOSUNNY   59  56  89 SE8       30.14F
6HR MIN TEMP:  47; 6HR MAX TEMP:  59; 6HR PCP:  0.09;

WOODRUFF       MOSUNNY   59  56  89 SE8       30.14F
6HR MIN TEMP:  47; 6HR MAX TEMP:  59; 6HR PCP:  0.09;

RHINELANDER    CLOUDY    60  55  83 E9        30.16F
6HR MIN TEMP:  47; 6HR MAX TEMP:  59; 6HR PCP:  0.02;

EAGLE RIVER    LGT RAIN  57  51  80 SE6       30.15F
6HR MIN TEMP:  49; 6HR MAX TEMP:  58; 6HR PCP:  0.01;

LAND O LAKES   LGT RAIN  59  49  69 SE5       30.16F
6HR MIN TEMP:  48; 6HR MAX TEMP:  60;

PHILLIPS       CLOUDY    58  55  87 SE10      30.12F
6HR MIN TEMP:  47; 6HR MAX TEMP:  58; 6HR PCP:  0.02;

TOMAHAWK       CLOUDY    57  54  88 SE6       30.16F
6HR MIN TEMP:  44; 6HR MAX TEMP:  57;

MEDFORD        PTSUNNY   63  56  77 SE9       30.13F
6HR MIN TEMP:  46; 6HR MAX TEMP:  64; 6HR PCP:  0.12;

MERRILL        CLOUDY    61  57  86 SE5       30.15F
$$

WIZ029-030-035-036-043>047-061900-
CENTRAL WISCONSIN

CITY           SKY/WX    TMP DP  RH WIND       PRES   REMARKS
WAUSAU         PTSUNNY   66  56  70 E9        30.13F
6HR MIN TEMP:  47; 6HR MAX TEMP:  66; 6HR PCP: TRACE;

MOSINEE        MOSUNNY   66  57  72 SE8       30.14F
MARSHFIELD     CLOUDY    67  55  65 SE8       30.11F
6HR MIN TEMP:  51; 6HR MAX TEMP:  68;

STEVENS POINT  FAIR      66  55  66 E10       30.14F
6HR MIN TEMP:  48; 6HR MAX TEMP:  66; 6HR PCP:  0.05;

WAUPACA        CLOUDY    68  56  64 S13       30.17S
6HR MIN TEMP:  54; 6HR MAX TEMP:  69;

WAUTOMA        PTSUNNY   65  57  75 E8        30.15F
6HR MIN TEMP:  51; 6HR MAX TEMP:  67; 6HR PCP: TRACE;

WISC RAPIDS    PTSUNNY   68  54  60 SE12      30.13F
6HR MIN TEMP:  52; 6HR MAX TEMP:  70;

CAMP DOUGLAS   NOT AVBL
$$

WIZ011>013-019>022-031-037>040-048>050-061900-
NORTHEAST WISCONSIN

CITY           SKY/WX    TMP DP  RH WIND       PRES   REMARKS
ANTIGO         CLOUDY    59  55  87 SE7       30.17F
SHAWANO        CLOUDY    61  55  78 E9        30.18F
6HR MIN TEMP:  50; 6HR MAX TEMP:  61; 6HR PCP:  0.11;

OCONTO         CLOUDY    57  50  76 SE6       30.19S
6HR MIN TEMP:  51; 6HR MAX TEMP:  57;

STURGEON BAY   PTSUNNY   55  45  67 E8        30.22F
6HR MIN TEMP:  48; 6HR MAX TEMP:  57;

GREEN BAY      PTSUNNY   67  56  67 VRB5      30.19S
6HR MIN TEMP:  51; 6HR MAX TEMP:  67; 6HR PCP:  0.07;

MANITOWOC        N/A    N/A N/A N/A MISG        N/A
APPLETON       PTSUNNY   64  54  68 SE9       30.18F HAZE
CLINTONVILLE   CLOUDY    63  54  72 NE6       30.17F
OSHKOSH        PTSUNNY   63  55  75 E5        30.17F
6HR MIN TEMP:  52; 6HR MAX TEMP:  63; 6HR PCP: TRACE;

$$

WIZ032>034-041-042-053>061-061900-
SOUTHWEST WISCONSIN

CITY           SKY/WX    TMP DP  RH WIND       PRES   REMARKS
LA CROSSE      FAIR      73  60  63 VRB6      30.05F
6HR MIN TEMP:  56; 6HR MAX TEMP:  74; 6HR PCP: TRACE;

SPARTA         FAIR      70  57  63 E9        30.08F
6HR MIN TEMP:  53; 6HR MAX TEMP:  71; 6HR PCP:  0.03;

VIROQUA        FAIR      67  63  86 SE8       30.09F
6HR MIN TEMP:  52; 6HR MAX TEMP:  67; 6HR PCP:  0.04;

BOSCOBEL       FAIR      71  59  65 E6        30.08F
6HR MIN TEMP:  54; 6HR MAX TEMP:  72; 6HR PCP:  0.06;

PRAIRIE DU CHI FAIR      69  58  69 E9        30.06F
6HR MIN TEMP:  54; 6HR MAX TEMP:  69;

PLATTEVILLE    FAIR      70  63  78 E10       30.09F
6HR MIN TEMP:  52; 6HR MAX TEMP:  70; 6HR PCP:  0.04;

$$

WIZ056-057-062-063-064-067-068-061900-
SOUTH CENTRAL WISCONSIN

CITY           SKY/WX    TMP DP  RH WIND       PRES   REMARKS
REEDSBURG      FAIR      65  59  80 SE5       30.11F
6HR MIN TEMP:  50; 6HR MAX TEMP:  65; 6HR PCP:  0.02;

BARABOO/DELLS  NOT AVBL
LONE ROCK      FAIR      69  60  73 E7        30.10F
6HR MIN TEMP:  53; 6HR MAX TEMP:  69; 6HR PCP: TRACE;

MINERAL POINT  FAIR      70  61  73 SE10      30.10F
MADISON        PTSUNNY   65  59  81 SE7       30.13F HAZE
6HR MIN TEMP:  49; 6HR MAX TEMP:  65; 6HR PCP:  0.09;

MIDDLETON      FAIR      68  62  82 E8        30.13F
6HR MIN TEMP:  51; 6HR MAX TEMP:  68; 6HR PCP:  0.01;

WATERTOWN      PTSUNNY   66  62  88 SE6       30.14S
6HR MIN TEMP:  49; 6HR MAX TEMP:  66;

MONROE         FAIR      68  63  83 SE7       30.13F
JANESVILLE     PTSUNNY   70  61  73 E12       30.13F
$$

WIZ051-052-058>065-066-070>072-061900-
SOUTHEAST WISCONSIN

CITY           SKY/WX    TMP DP  RH WIND       PRES   REMARKS
MILWAUKEE      CLOUDY    54  50  86 SE9       30.19F FOG
6HR MIN TEMP:  45; 6HR MAX TEMP:  54;

WAUKESHA       PTSUNNY   57  54  88 NE6       30.18F FOG
MILWAUKEE/TIMM CLOUDY    54  48  82 E5        30.21S FOG
RACINE         CLOUDY    52  48  86 VRB5      30.21S FOG
6HR MIN TEMP:  45; 6HR MAX TEMP:  54;

BURLINGTON     MOSUNNY   65  58  78 E7        30.16F HAZE
6HR MIN TEMP:  47; 6HR MAX TEMP:  65;

KENOSHA        CLOUDY    58  53  84 NE8       30.18F
6HR MIN TEMP:  47; 6HR MAX TEMP:  58;

FOND DU LAC    PTSUNNY   61  55  81 SE6       30.17F
6HR MIN TEMP:  53; 6HR MAX TEMP:  63; 6HR PCP: TRACE;

SHEBOYGAN      CLOUDY    55  52  89 S9        30.20F
6HR MIN TEMP:  47; 6HR MAX TEMP:  56;

WEST BEND      CLOUDY    55  50  82 E8        30.19F
JUNEAU         CLOUDY    59  56  90 E8        30.17R FOG
6HR MIN TEMP:  49; 6HR MAX TEMP:  60; 6HR PCP:  0.04;

$$

LSZ147-162-061900-
LAKE SUPERIOR

STATION/POSITION TIME  TEMP    WIND        PRES    WAVE
                       AIR SEA DIR/SP/G            HT/PER
                 (UTC) (F)     (DEG/KT/KT) (MB)    (FT/S)
W MID LAKE BUOY  1750   39 36   60/  6/  6 1021.4F   0
DEVILS ISLAND    1800   43      70/  7/  8 1020.5F
PORT WING        1700   43      40/  9/ 10 1019.6F
SAXON HARBOR     1700   60     220/  3/  8 1020.0F
$$

LMZ867-665-643>646-061900-
LAKE MICHIGAN

STATION/POSITION TIME  TEMP    WIND        PRES    WAVE
                       AIR SEA DIR/SP/G            HT/PER
                 (UTC) (F)     (DEG/KT/KT) (MB)    (FT/S)
CHAMBERS ISLAND  1700   50     320/  7/  7 1023.7S
NORTHPORT PIER   1800   45     130/  4/  8 1023.4F
SISTER BAY       1747   60     170/  9/ 11   N/A



USA.gov is the U.S. government's official web portal to all federal, state and local government web resources and services.